This demonstration page uses our WeatherBlox Daily Observations layout. Learn more.

Left ArrowRight Arrow

Hourly Observations for March 29, 2022

Temp ( °F °C ) Dew Point ( °F °C ) Humidity (%) Winds ( mph kmh ) Pressure ( in mb ) Visibility ( mi km ) Precip ( " mm )
12:15 am 00:15 Clear 45 7 36 2 71 71 SE 12 19 29.77 1008 10 16 0.00 0.00
12:35 am 00:35 Clear 45 7 36 2 71 71 SE 12 19 29.76 1008 10 16 0.00 0.00
12:55 am 00:55 Clear 43 6 34 1 71 71 SE 12 19 29.76 1008 10 16 0.00 0.00
1:15 am 01:15 Clear 43 6 34 1 71 71 ESE 12 19 29.75 1007 10 16 0.00 0.00
1:35 am 01:35 Clear 41 5 34 1 76 76 SE 13 20 29.75 1007 10 16 0.00 0.00
1:55 am 01:55 Clear 41 5 34 1 76 76 SE 13 20 29.73 1007 10 16 0.00 0.00
2:15 am 02:15 Clear 41 5 34 1 76 76 ESE 13 20 29.72 1006 10 16 0.00 0.00
2:35 am 02:35 Clear 41 5 32 0 70 70 ESE 12 19 29.70 1006 10 16 0.00 0.00
2:55 am 02:55 Clear 41 5 32 0 70 70 ESE 13 20 29.68 1005 10 16 0.00 0.00
3:15 am 03:15 Clear 41 5 32 0 70 70 ESE 14 22 29.67 1005 10 16 0.00 0.00
3:35 am 03:35 Clear 41 5 32 0 70 70 ESE 14 22 29.66 1004 10 16 0.00 0.00
3:55 am 03:55 Clear 41 5 32 0 70 70 ESE 14 22 29.64 1004 10 16 0.00 0.00
4:15 am 04:15 Clear 39 4 30 -1 70 70 ESE 13 20 29.63 1003 10 16 0.00 0.00
4:35 am 04:35 Clear 37 3 30 -1 75 75 ESE 10 17 29.64 1004 10 16 0.00 0.00
4:55 am 04:55 Clear 37 3 30 -1 75 75 ESE 10 17 29.63 1003 10 16 0.00 0.00
5:15 am 05:15 Clear 37 3 30 -1 75 75 ESE 10 17 29.63 1003 10 16 0.00 0.00
5:35 am 05:35 Clear 37 3 30 -1 75 75 ESE 8 13 29.62 1003 10 16 0.00 0.00
5:55 am 05:55 Clear 37 3 32 0 81 81 ESE 8 13 29.62 1003 10 16 0.00 0.00
6:15 am 06:15 Clear 36 2 30 -1 81 81 ESE 7 11 29.63 1003 10 16 0.00 0.00
6:35 am 06:35 Clear 36 2 30 -1 81 81 ESE 8 13 29.61 1003 10 16 0.00 0.00
6:55 am 06:55 Clear 36 2 30 -1 81 81 ESE 8 13 29.60 1002 10 16 0.00 0.00
7:15 am 07:15 Clear 36 2 30 -1 81 81 ESE 8 13 29.59 1002 10 16 0.00 0.00
7:35 am 07:35 Sunny 36 2 30 -1 81 81 ESE 8 13 29.58 1002 10 16 0.00 0.00
7:55 am 07:55 Sunny 36 2 30 -1 81 81 ESE 9 15 29.57 1001 10 16 0.00 0.00
8:15 am 08:15 Sunny 36 2 32 0 87 87 ESE 7 11 29.56 1001 10 16 0.00 0.00
8:35 am 08:35 Sunny 37 3 32 0 81 81 ESE 8 13 29.54 1000 10 16 0.00 0.00
8:55 am 08:55 Sunny 41 5 34 1 76 76 ESE 10 17 29.50 999 10 16 0.00 0.00
9:15 am 09:15 Sunny 43 6 34 1 71 71 ESE 13 20 29.47 998 10 16 0.00 0.00
9:35 am 09:35 Sunny 45 7 37 3 76 76 SE 13 20 29.45 997 10 16 0.00 0.00
9:55 am 09:55 Sunny 48 9 37 3 66 66 ESE 14 22 29.42 996 10 16 0.00 0.00
10:15 am 10:15 Sunny 48 9 37 3 66 66 ESE 7 11 29.44 997 10 16 0.00 0.00
10:35 am 10:35 Sunny 52 11 39 4 62 62 SE 12 19 29.40 996 10 16 0.00 0.00
10:55 am 10:55 Sunny 54 12 41 5 63 63 SE 10 17 29.38 995 10 16 0.00 0.00
11:15 am 11:15 Sunny 55 13 41 5 59 59 SE 7 11 29.37 995 10 16 0.00 0.00
11:35 am 11:35 Sunny 55 13 41 5 59 59 SE 9 15 29.34 994 10 16 0.00 0.00
11:55 am 11:55 Sunny 59 15 39 4 48 48 SSE 8 13 29.31 992 10 16 0.00 0.00
12:15 pm 12:15 Sunny 61 16 39 4 45 45 SSE 7 11 29.29 992 10 16 0.00 0.00
12:35 pm 12:35 Sunny 63 17 37 3 39 39 SSW 10 17 29.27 991 10 16 0.00 0.00
12:55 pm 12:55 Sunny 63 17 37 3 39 39 S 7 11 29.26 991 10 16 0.00 0.00
1:15 pm 13:15 Sunny 68 20 39 4 35 35 SSW 8 13 29.23 990 10 16 0.00 0.00
1:35 pm 13:35 Sunny 68 20 37 3 33 33 WSW 5 7 29.19 988 10 16 0.00 0.00
1:55 pm 13:55 Sunny 70 21 39 4 33 33 W 10 17 29.18 988 10 16 0.00 0.00
2:15 pm 14:15 Sunny 70 21 37 3 31 31 W 21 33 29.19 988 10 16 0.00 0.00
2:35 pm 14:35 Sunny 68 20 37 3 33 33 W 16 26 29.19 988 10 16 0.00 0.00
2:55 pm 14:55 Sunny 68 20 36 2 30 30 WSW 17 28 29.19 988 10 16 0.00 0.00
3:15 pm 15:15 Sunny 68 20 37 3 33 33 W 23 37 29.18 988 10 16 0.00 0.00
3:35 pm 15:35 Sunny 68 20 37 3 33 33 W 22 35 29.18 988 10 16 0.00 0.00
3:55 pm 15:55 Sunny 66 19 37 3 35 35 W 22 35 29.19 989 10 16 0.00 0.00
4:15 pm 16:15 Sunny 61 16 34 1 36 36 W 23 37 29.23 990 10 16 0.00 0.00
4:35 pm 16:35 Sunny 61 16 36 2 39 39 W 26 43 29.24 990 10 16 0.00 0.00
4:55 pm 16:55 Sunny 59 15 36 2 42 42 W 24 39 29.26 991 10 16 0.00 0.00
5:15 pm 17:15 Sunny 61 16 36 2 39 39 W 23 37 29.25 990 10 16 0.00 0.00
5:35 pm 17:35 Sunny 61 16 36 2 39 39 W 21 33 29.25 990 10 16 0.00 0.00
5:55 pm 17:55 Sunny 59 15 37 3 45 45 WNW 18 30 29.26 991 10 16 0.00 0.00
6:15 pm 18:15 Sunny 59 15 37 3 45 45 WNW 15 24 29.28 991 10 16 0.00 0.00
6:35 pm 18:35 Sunny 59 15 37 3 45 45 NW 15 24 29.28 991 10 16 0.00 0.00
6:55 pm 18:55 Mostly Cloudy 59 15 37 3 45 45 NW 14 22 29.30 992 10 16 0.00 0.00
7:15 pm 19:15 Cloudy 59 15 37 3 45 45 NNW 14 22 29.31 992 10 16 0.00 0.00
7:35 pm 19:35 Cloudy 55 13 36 2 47 47 NNW 20 31 29.33 993 10 16 0.00 0.00
7:55 pm 19:55 Cloudy 55 13 37 3 51 51 NNW 23 37 29.33 993 10 16 0.00 0.00
8:15 pm 20:15 Cloudy 54 12 36 2 51 51 NW 22 35 29.36 994 10 16 0.00 0.00
8:35 pm 20:35 Cloudy 54 12 37 3 54 54 NW 20 31 29.38 995 10 16 0.00 0.00
8:55 pm 20:55 Cloudy 54 12 36 2 51 51 NNW 29 46 29.39 995 10 16 0.00 0.00
9:15 pm 21:15 Cloudy 52 11 34 1 50 50 NNW 25 41 29.42 996 10 16 0.00 0.00
9:35 pm 21:35 Partly Cloudy 48 9 34 1 58 58 NNW 26 43 29.47 998 10 16 0.00 0.00
9:55 pm 21:55 Clear 48 9 36 2 62 62 NNW 24 39 29.47 998 10 16 0.00 0.00
10:15 pm 22:15 Clear 45 7 34 1 66 66 N 40 65 29.50 999 10 16 0.00 0.00
10:35 pm 22:35 Partly Cloudy 43 6 34 1 71 71 NNW 30 48 29.52 1000 10 16 0.00 0.00
10:55 pm 22:55 Mostly Cloudy 43 6 34 1 71 71 N 36 57 29.54 1000 10 16 0.00 0.00
11:15 pm 23:15 Cloudy 43 6 34 1 71 71 NNW 28 44 29.57 1001 10 16 0.00 0.00
11:35 pm 23:35 Cloudy 41 5 32 0 70 70 N 35 56 29.59 1002 10 16 0.00 0.00
11:55 pm 23:55 Cloudy 39 4 32 0 75 75 NNW 30 48 29.63 1003 10 16 0.00 0.00

Powered by AerisWeather